EST,Max TemperatureF,Mean TemperatureF,Min TemperatureF,Max Dew PointF,MeanDew PointF,Min DewpointF,Max Humidity, Mean Humidity, Min Humidity, Max Sea Level PressureIn, Mean Sea Level PressureIn, Min Sea Level PressureIn, Max VisibilityMiles, Mean VisibilityMiles, Min VisibilityMiles, Max Wind SpeedMPH, Mean Wind SpeedMPH, Max Gust SpeedMPH,PrecipitationIn, CloudCover, Events, WindDirDegrees
2012-11-1,53,48,44,43,39,37,89,73,57,29.54,29.52,29.48,10,10,10,5,2,,0.00,5,,165
2012-11-2,51,46,41,40,37,33,93,72,54,29.58,29.53,29.50,10,10,10,10,2,,0.00,4,Rain,295
2012-11-3,51,46,42,35,33,30,74,63,48,29.75,29.67,29.58,10,10,10,17,9,25,0.00,5,,301
2012-11-4,51,44,37,33,31,28,73,63,48,29.92,29.83,29.75,10,10,10,14,7,21,0.00,3,,298
2012-11-5,39,34,28,27,22,16,67,60,44,30.11,30.00,29.93,10,10,10,10,5,,0.00,6,,324
2012-11-6,42,34,25,20,17,13,78,56,33,30.23,30.18,30.11,10,10,10,7,3,,0.00,0,,323
2012-11-7,37,32,27,28,17,12,93,56,36,30.22,30.02,29.83,10,8,1,24,10,31,0.00,5,Snow,14
2012-11-8,39,34,30,36,32,28,93,89,77,29.82,29.73,29.67,10,4,1,20,15,31,0.49,8,Rain-Snow,359
2012-11-9,50,44,37,34,27,21,82,57,33,30.04,29.90,29.73,10,10,10,15,10,25,0.00,2,,306
2012-11-10,51,42,33,31,27,21,78,57,32,30.45,30.25,30.04,10,10,10,16,5,23,0.00,0,,307
2012-11-11,57,46,36,45,37,28,93,76,59,30.49,30.44,30.38,10,8,0,6,0,,0.00,4,Fog,177
2012-11-12,66,52,37,55,44,35,94,80,43,30.44,30.36,30.21,10,7,0,8,2,,0.00,1,Fog,168
2012-11-13,60,48,37,58,45,30,96,83,62,30.41,30.20,30.07,10,10,8,14,6,23,0.18,7,Rain,238
2012-11-14,46,37,28,29,22,18,82,59,34,30.54,30.49,30.42,10,10,10,9,6,21,0.00,1,,352
2012-11-15,43,35,27,28,24,21,89,67,47,30.48,30.40,30.31,10,10,10,10,6,17,0.00,0,,356
2012-11-16,44,36,28,29,27,25,89,73,51,30.42,30.32,30.27,10,10,10,6,4,,0.00,0,,328
2012-11-17,46,36,27,29,27,24,92,74,47,30.66,30.57,30.43,10,10,7,8,4,,0.00,0,,316
2012-11-18,46,36,26,26,20,14,92,63,29,30.74,30.68,30.63,10,10,7,7,5,,0.00,0,,335
2012-11-19,48,36,23,33,24,17,92,69,49,30.62,30.47,30.28,10,10,7,9,5,,0.00,0,,338
2012-11-20,48,36,24,30,24,20,96,69,33,30.25,30.18,30.14,10,9,6,7,4,,0.00,0,,334
2012-11-21,48,39,30,34,29,24,92,67,57,30.27,30.23,30.17,10,10,8,8,6,,0.00,3,,346
2012-11-22,53,40,28,39,34,27,100,85,52,30.26,30.19,30.11,10,7,2,8,4,,0.00,2,,316
2012-11-23,55,41,27,42,33,26,100,90,53,30.11,29.93,29.61,10,4,0,6,1,,0.00,2,Fog,178
2012-11-24,45,38,30,41,26,15,96,60,35,29.58,29.53,29.47,10,9,4,13,5,26,0.00,5,Rain,293
2012-11-25,36,32,27,18,13,3,69,47,25,29.80,29.68,29.57,10,10,10,14,8,31,0.00,1,,273
2012-11-26,42,34,26,25,20,18,81,63,38,30.22,29.99,29.80,10,10,10,13,2,25,0.00,2,,288
2012-11-27,34,29,24,29,23,18,93,78,59,30.31,30.26,30.22,10,10,7,6,2,,0.00,6,,318
2012-11-28,36,31,25,22,19,17,75,64,48,30.22,30.16,30.10,10,10,10,8,5,,0.00,5,Snow,3
2012-11-29,41,34,26,24,18,15,78,55,38,30.22,30.13,30.07,10,10,10,9,3,17,0.00,2,,277
2012-11-30,33,28,23,23,5,-1,66,41,30,30.57,30.44,30.21,10,10,9,14,8,18,0.00,4,Snow,327